Regional Weather Roundup
Issued by NWS

Home | Current Version | Previous Version | Graphics & Text | Print | Product List | Glossary On
Versions: 1 2 3 4 5 6 7 8 9 10 11 12 13 14 15 16 17 18 19 20 21 22 23 24 25 26 27 28 29 30 31 32 33 34 35 36 37 38 39 40 41 42 43 44 45 46 47 48 49 50
000
ASUS44 KMEG 230310
RWRTN
TENNESSEE HOURLY STATE WEATHER ROUNDUP
NATIONAL WEATHER SERVICE MEMPHIS TN
900 PM CST WED FEB 22 2017

TNZ002-004-019-021-049-052-054-088>092-230400-
WEST TENNESSEE

CITY           SKY/WX    TMP DP  RH WIND       PRES   REMARKS
MEMPHIS INTL   CLEAR     65  56  72 S10       29.82R
NWS MEMPHIS      N/A     65 N/A N/A MISG        N/A
JACKSON        CLEAR     60  57  89 S6        29.83R
UNION CITY     CLEAR     61  61 100 CALM      29.80R
PARIS          CLEAR     57  54  88 S7        29.82F
HUNTINGDON     CLEAR     59  55  88 S5        29.82S
$$

TNZ008-025-027-028-033-062-065-066-230400-
NORTH MIDDLE TENNESSEE

CITY           SKY/WX    TMP DP  RH WIND       PRES   REMARKS
NASHVILLE      PTCLDY    60  56  86 SW3       29.85F
PORTLAND       CLEAR     61  57  88 SW3       29.85S
CLARKSVILLE    CLEAR     59  53  80 S3        29.84R
SMYRNA         PTCLDY    57  56  96 S3        29.86F
COOKEVILLE     CLOUDY    52  52 100 CALM      29.87F
GALLATIN       MOCLDY    61  57  88 CALM      29.88S
CROSSVILLE     PTCLDY    54  53  97 SE3       29.91F FOG
$$

TNZ061-075-076-078-094-096-097-230400-
SOUTH MIDDLE TENNESSEE

CITY           SKY/WX    TMP DP  RH WIND       PRES   REMARKS
FAYETTEVILLE   CLEAR     59  57  94 SE6       29.86F
TULLAHOMA      CLEAR     57  55  94 SE3       29.88F
WINCHESTER     CLEAR     52  52 100 CALM      29.88F
MCMINNVILLE    CLEAR     54  54 100 CALM      29.88F
COLUMBIA       PTCLDY   N/A N/A N/A CALM      29.84R
SHELBYVILLE    CLEAR     61  57  88 SE5       29.87F
$$

TNZ017-018-042-046-047-230400-
NORTHEAST TENNESSEE

CITY           SKY/WX    TMP DP  RH WIND       PRES   REMARKS
TRI CITIES     FOG       50  50 100 CALM      29.92S VSB 1/4
ELIZABETHTON   MOCLDY    54  52  94 NE3       29.92S
$$

TNZ012-013-036-069-073-074-230400-
CENTRAL EAST TENNESSEE

CITY           SKY/WX    TMP DP  RH WIND       PRES   REMARKS
KNOXVILLE      PTCLDY    57  54  89 CALM      29.90R
OAK RIDGE      CLOUDY    55  53  93 CALM      29.92F
GATLINBURG     CLOUDY    52  52 100 CALM      29.90F VSB 1/4
MORRISTOWN     FOG       50  50 100 CALM      29.90F VSB 0
JACKSBORO      CLOUDY    55  55 100 CALM      29.94F
$$

TNZ083-085-099-230400-
SOUTHEAST TENNESSEE

CITY           SKY/WX    TMP DP  RH WIND       PRES   REMARKS
CHATTANOOGA    PTCLDY    56  54  93 CALM      29.89F
$$

SKY/WX REPORTED AS FAIR MEANS FEW OR NO CLOUDS BELOW
12 THOUSAND FEET.




USA.gov is the U.S. government's official web portal to all federal, state and local government web resources and services.